Location: Unnamed
(45.1820°N, 67.3015°W)
Time: 21:54:10
(UTC-03:00)

ISS - Visible Passes

Search period start: 19 June 2025 00:00
Search period end: 29 June 2025 00:00
Orbit: 415 x 417 km, 51.6° (Epoch: 19 June)

Date Brightness Start Highest point End Pass type
(mag) Time Alt. Az. Time Alt. Az. Time Alt. Az.
19 Jun -1.1 05:01:19 10° SSE 05:02:15 11° SE 05:03:11 10° ESE visible
21 Jun -2.2 04:58:37 10° SSW 05:01:30 27° SE 05:04:23 10° E visible
22 Jun -1.6 04:11:12 12° S 04:12:59 17° SE 04:15:12 10° E visible
23 Jun -3.6 04:57:15 10° SW 05:00:34 66° SSE 05:03:54 10° ENE visible
24 Jun -3.0 04:10:02 21° SSW 04:11:46 40° SE 04:14:56 10° ENE visible
25 Jun -2.3 03:22:48 24° SE 03:22:57 24° SE 03:25:43 10° E visible
25 Jun -3.3 04:56:09 10° WSW 04:59:27 57° NNW 05:02:46 10° NE visible
26 Jun -1.2 02:35:27 12° ESE 02:35:27 12° ESE 02:36:05 10° E visible
26 Jun -3.8 04:08:17 21° WSW 04:10:23 86° NNW 04:13:44 10° ENE visible
27 Jun -3.7 03:20:48 51° S 03:21:17 59° SE 03:24:35 10° ENE visible
27 Jun -2.3 04:55:03 10° W 04:58:08 34° NNW 05:01:14 10° NE visible
28 Jun -2.3 02:33:11 28° ESE 02:33:11 28° ESE 02:35:14 10° ENE visible
28 Jun -2.8 04:06:00 13° W 04:08:48 44° NNW 04:12:02 10° NE visible
